Flag for Canada Weather past 2 weeks in Miramichi, New Brunswick, Canada

Now
72 °F

Thunderstorms. Mostly cloudy.


Feels Like: 74 °F
Forecast: 65 / 79 °F
Wind: 7 mph from East

Location: Bathurst Airport

Current Time: Aug 4, 2015 at 4:09:31 PM

Latest Report: Aug 4, 2015 at 3:00 PM


Visibility: 12 mi

Pressure: 29.76 "Hg

Humidity: 73%

Dew point: 63 °F

Location of MiramichiLocation

Historic Weather in Miramichi — Graph

°F

Miramichi temperature yesterday

Maximum temperature yesterday: 86 °F (at 3:00 PM)
Minimum temperature yesterday: 54 °F (at 6:00 AM)
Average temperature yesterday: 71 °F

Past Weeks' High & Low Weather Summary

 TemperatureHumidityPressure
High86 °F (Aug 3, 3:00 PM)100% (Jul 20, 5:00 PM)30.13 "Hg (Jul 20, 5:00 PM)
Low45 °F (Jul 25, 5:00 AM)37% (Aug 2, 4:00 PM)29.53 "Hg (Jul 31, 4:00 PM)
Average64 °F83%29.80 "Hg
* Reported Jul 20 3:00 PM — Aug 4 3:00 PM, Miramichi, Weather by CustomWeather, © 2015

Note: Actual official high and low records may vary slightly from our data, if they occured in-between our weather recording intervals... More about our weather records

Advertising

Miramichi weather history for previous 24 hours

 ConditionsComfort  
Time TempWeatherWind HumidityBarometerVisibility
3:00 PM
Tue, Aug 4
72 °FThunderstorms. Mostly cloudy.7 mph73%29.76 "Hg12 mi
2:00 PM70 °FSprinkles. Mostly cloudy.7 mph78%29.78 "Hg15 mi
1:00 PM75 °FBroken clouds.7 mph69%29.78 "Hg15 mi
12:00 PM77 °FPartly sunny.3 mph61%29.80 "Hg15 mi
11:00 AM75 °FPassing clouds.6 mph61%29.79 "Hg15 mi
10:00 AM70 °FScattered clouds.7 mph78%29.80 "Hg12 mi
9:00 AM70 °FPartly sunny.5 mph83%29.80 "Hg10 mi
8:00 AM68 °FOvercast.5 mph88%29.80 "Hg7 mi
7:00 AM66 °FLow clouds.2 mph88%29.80 "Hg10 mi
6:00 AM63 °FPassing clouds.3 mph94%29.78 "Hg10 mi
5:00 AM61 °FPassing clouds.5 mph94%29.78 "Hg10 mi
4:00 AM59 °FPartly cloudy.2 mph94%29.78 "Hg10 mi
3:00 AM57 °FPassing clouds.3 mph100%29.79 "Hg12 mi
2:00 AM61 °FPassing clouds.No wind88%29.78 "Hg15 mi
1:00 AM64 °FPassing clouds.No wind83%29.79 "Hg15 mi
12:00 AM66 °FPassing clouds.2 mph78%29.80 "Hg15 mi
11:00 PM
Mon, Aug 3
70 °FPassing clouds.5 mph69%29.80 "Hg15 mi
10:00 PM68 °FPassing clouds.2 mph73%29.77 "Hg15 mi
9:00 PM72 °FBroken clouds.3 mph61%29.76 "Hg15 mi
8:00 PM77 °FPartly sunny.17 mph47%29.76 "Hg15 mi
7:00 PM84 °FBroken clouds.14 mph45%29.71 "Hg15 mi
6:00 PM86 °FOvercast.12 mph40%29.68 "Hg15 mi
5:00 PM86 °FOvercast.18 mph38%29.68 "Hg15 mi
4:00 PM86 °FOvercast.13 mph43%29.70 "Hg15 mi
Weather by CustomWeather, © 2015

See weather overviewHow to use our weather pages